PGUMRJAW

Guest
Details From PGUM - Guam Intl
To RJAW - IWO JIMA
Flight Number -
Tags decoded
Created
Modified
Stats Distance 750 nm / 1,390 km
Max Altitude 0 ft / 0 m
Waypoints 4
Social Downloads 3
Likes 0
Share VATSIM

Download

Looking for another format? Having issues loading an existing format? Contact us
Advertisement - Login to hide

Notes

Requested: PGUM WINZR B586 VASKO RJAW Unmatched points: B586

Route

PGUM WINZR VASKO RJAW

ID Type Via Altitude Latitude Longitude Leg Dist Tot Dist Heading (true) Name
O PGUM APT - 0 ft / 0 m 13.48387˚ 144.79717˚ - 0 nm - Guam Intl
WINZR FIX - 0 ft / 0 m 15.09333˚ 144.38000˚ 99 nm 99 nm 346° / 346° -
VASKO FIX - 0 ft / 0 m 25.00439˚ 142.03694˚ 609 nm 709 nm 348° / 347° -
O RJAW APT - 0 ft / 0 m 24.78399˚ 141.32272˚ 41 nm 750 nm 251° / 251° IWO JIMA

Altitude Profile

Advertisement - Login to hide

Weather


0- 5 10 15 20 25 30 35+ Temperature / ° C

Clouds and Precipitation
Forecast for 2017-12-17 12:00 UTC. Updated an hour ago

Ground ~20,000 ft ~40,000 ft Winds

PGUM

Details ICAO PGUM (GUM)
Name Guam Intl
Region USA (Guam, Northern Mariana Islands)
Timezone Pacific/Guam (UTC+10.0)
Stats Elevation 298 ft / 91 m (AMSL)
Location 13.483874° 144.797171°
Runways 2
Magnetic Variation 0.747° E

METAR

PGUM 171154Z 08009KT 10SM FEW020 28/25 A2990 RMK AO2 SLP115 70001 T02780250 10300 20278 51014

Decode

TAF

TAF PGUM 171134Z 1712/1818 09008KT P6SM VCSH FEW020 FEW040 WS020/09028KT FM172200 08016G22KT P6SM VCSH SCT018 FM180900 08006KT P6SM VCSH FEW018

Decode

Departure Runways

ID Width Length Bearing (true) Bearing (mag) Surface Threshold Offset Overrun Length
06L 150 ft / 46 m 10,016 ft / 3,053 m 64.81° 64.06° Asphalt 0 ft / 0 m 1,002 ft / 305 m
06R 150 ft / 46 m 10,015 ft / 3,053 m 64.81° 64.06° Asphalt 0 ft / 0 m 400 ft / 122 m
24L 150 ft / 46 m 10,015 ft / 3,053 m 244.82° 244.07° Asphalt 1,004 ft / 306 m 300 ft / 91 m
24R 150 ft / 46 m 10,016 ft / 3,053 m 244.82° 244.07° Asphalt 0 ft / 0 m 450 ft / 137 m

RJAW

Details ICAO RJAW (IWO)
Name IWO JIMA
Region Japan
Timezone Asia/Tokyo (UTC+9.0)
Stats Elevation 384 ft / 117 m (AMSL)
Location 24.783986° 141.322722°
Runways 1
Magnetic Variation 3.566° W

METAR

RJAW 171200Z 02016KT 9999 SCT015 SCT080 BKN230 21/17 Q1017 RMK 3CU015 3AC080 A3005

Decode

TAF

Not found

Destination Runways

ID Width Length Bearing (true) Bearing (mag) Surface Threshold Offset Overrun Length
07 200 ft / 61 m 8,676 ft / 2,645 m 67.97° 71.54° Asphalt 0 ft / 0 m 550 ft / 168 m
25 200 ft / 61 m 8,676 ft / 2,645 m 247.98° 251.55° Asphalt 0 ft / 0 m 550 ft / 168 m

Popular Alternatives